H1 CPF 2 NER 2024 4 17 9 108 01 glonass143 H2 2007501 9143 46805 2024 4 17 0 0 0 2024 4 20 23 45 0 900 1 1 0 0 0 1 H9 10 0 60417 0.00000 0 -24931739.791 -5086818.710 1656457.422 10 0 60417 900.00000 0 -24965503.849 -4944849.296 -1556682.801 10 0 60417 1800.00000 0 -24598304.650 -4749762.187 -4739543.558 10 0 60417 2700.00000 0 -23832331.199 -4557069.719 -7830207.980 10 0 60417 3600.00000 0 -22683062.190 -4421090.856 -10768545.947 10 0 60417 4500.00000 0 -21178707.337 -4392416.157 -13497390.944 10 0 60417 5400.00000 0 -19359130.796 -4515536.764 -15963658.391 10 0 60417 6300.00000 0 -17274301.709 -4826738.847 -18119383.092 10 0 60417 7200.00000 0 -14982336.920 -5352353.626 -19922655.100 10 0 60417 8100.00000 0 -12547217.992 -6107437.805 -21338435.680 10 0 60417 9000.00000 0 -10036278.174 -7094940.894 -22339237.567 10 0 60417 9900.00000 0 -7517564.416 -8305395.181 -22905656.574 10 0 60417 10800.00000 0 -5057184.467 -9717141.965 -23026744.668 10 0 60417 11700.00000 0 -2716749.325 -11297085.022 -22700217.778 10 0 60417 12600.00000 0 -551017.116 -13001940.091 -21932494.764 10 0 60417 13500.00000 0 1394164.331 -14779928.327 -20738567.275 10 0 60417 14400.00000 0 3083531.579 -16572843.079 -19141703.322 10 0 60417 15300.00000 0 4493627.925 -18318403.692 -17172990.585 10 0 60417 16200.00000 0 5613524.496 -19952797.940 -14870728.435 10 0 60417 17100.00000 0 6445011.732 -21413306.866 -12279680.549 10 0 60417 18000.00000 0 7002254.934 -22640902.177 -9450202.698 10 0 60417 18900.00000 0 7310930.069 -23582707.463 -6437262.664 10 0 60417 19800.00000 0 7406877.796 -24194220.294 -3299371.431 10 0 60417 20700.00000 0 7334333.737 -24441201.994 -97446.518 10 0 60417 21600.00000 0 7143810.848 -24301155.923 3106370.310 10 0 60417 22500.00000 0 6889724.177 -23764332.470 6249917.877 10 0 60417 23400.00000 0 6627859.010 -22834218.659 9272219.445 10 0 60417 24300.00000 0 6412789.771 -21527491.919 12114662.228 10 0 60417 25200.00000 0 6295358.921 -19873439.907 14722129.851 10 0 60417 26100.00000 0 6320322.410 -17912870.496 17044066.062 10 0 60417 27000.00000 0 6524261.030 -15696557.229 19035449.539 10 0 60417 27900.00000 0 6933845.780 -13283284.588 20657661.516 10 0 60417 28800.00000 0 7564530.448 -10737573.954 21879230.015 10 0 60417 29700.00000 0 8419726.757 -8127184.087 22676436.965 10 0 60417 30600.00000 0 9490497.369 -5520489.075 23033776.946 10 0 60417 31500.00000 0 10755780.506 -2983841.690 22944259.042 10 0 60417 32400.00000 0 12183137.907 -579030.571 22409546.058 10 0 60417 33300.00000 0 13729996.129 1639064.246 21439928.214 10 0 60417 34200.00000 0 15345330.635 3624520.956 20054131.326 10 0 60417 35100.00000 0 16971723.513 5342046.420 18278962.489 10 0 60417 36000.00000 0 18547709.944 6768198.575 16148799.185 10 0 60417 36900.00000 0 20010316.008 7892110.387 13704930.775 10 0 60417 37800.00000 0 21297682.088 8715685.610 10994764.182 10 0 60417 38700.00000 0 22351661.970 9253258.597 8070908.379 10 0 60417 39600.00000 0 23120288.264 9530732.857 4990154.972 10 0 60417 40500.00000 0 23559999.921 9584235.116 1812374.421 10 0 60417 41400.00000 0 23637537.295 9458342.204 -1400650.532 10 0 60417 42300.00000 0 23331423.893 9203956.333 -4586431.089 10 0 60417 43200.00000 0 22632971.320 8875919.463 -7682994.139 10 0 60417 44100.00000 0 21546764.039 8530468.643 -10630094.935 10 0 60417 45000.00000 0 20090602.579 8222641.113 -13370396.170 10 0 60417 45900.00000 0 18294906.863 8003740.057 -15850589.701 10 0 60417 46800.00000 0 16201604.151 7918969.295 -18022438.435 10 0 60417 47700.00000 0 13862547.987 8005337.889 -19843717.624 10 0 60417 48600.00000 0 11337534.185 8289923.979 -21279037.085 10 0 60417 49500.00000 0 8691996.804 8788571.812 -22300528.438 10 0 60417 50400.00000 0 5994480.270 9505077.368 -22888384.224 10 0 60417 51300.00000 0 3313993.009 10430897.257 -23031238.915 10 0 60417 52200.00000 0 717352.523 11545393.375 -22726384.858 10 0 60417 53100.00000 0 -1733367.960 12816603.210 -21979819.508 10 0 60417 54000.00000 0 -3983185.749 14202503.576 -20806123.454 10 0 60417 54900.00000 0 -5986251.157 15652714.835 -19228171.959 10 0 60417 55800.00000 0 -7707502.308 17110574.167 -17276685.868 10 0 60417 56700.00000 0 -9123864.760 18515490.965 -14989630.735 10 0 60417 57600.00000 0 -10224947.460 19805485.598 -12411475.886 10 0 60417 58500.00000 0 -11013207.608 20919804.957 -9592327.880 10 0 60417 59400.00000 0 -11503579.313 21801505.079 -6586955.231 10 0 60417 60300.00000 0 -11722583.265 22399892.339 -3453723.393 10 0 60417 61200.00000 0 -11706956.382 22672720.594 -253460.836 10 0 60417 62100.00000 0 -11501860.519 22588052.040 2951721.601 10 0 60417 63000.00000 0 -11158746.820 22125703.417 6099635.045 10 0 60417 63900.00000 0 -10732966.685 21278216.832 9129217.088 10 0 60417 64800.00000 0 -10281230.751 20051314.408 11981713.050 10 0 60417 65700.00000 0 -9859023.434 18463817.354 14601811.266 10 0 60417 66600.00000 0 -9518082.217 16547032.576 16938710.613 10 0 60417 67500.00000 0 -9304047.965 14343631.992 18947100.076 10 0 60417 68400.00000 0 -9254385.141 11906070.703 20588031.942 10 0 60417 69300.00000 0 -9396659.404 9294609.174 21829672.338 10 0 60417 70200.00000 0 -9747245.058 6575020.789 22647915.235 10 0 60417 71100.00000 0 -10310516.857 3816078.972 23026848.586 10 0 60417 72000.00000 0 -11078560.576 1086927.119 22959063.892 10 0 60417 72900.00000 0 -12031415.188 -1545560.706 22445803.371 10 0 60417 73800.00000 0 -13137837.436 -4019319.947 21496941.659 10 0 60417 74700.00000 0 -14356557.858 -6279432.167 20130801.961 10 0 60417 75600.00000 0 -15637976.766 -8280161.978 18373809.489 10 0 60417 76500.00000 0 -16926230.194 -9986610.321 16259987.985 10 0 60417 77400.00000 0 -18161540.044 -11375915.837 13830308.138 10 0 60417 78300.00000 0 -19282750.439 -12437954.652 11131899.570 10 0 60417 79200.00000 0 -20229943.978 -13175509.740 8217140.866 10 0 60417 80100.00000 0 -20947027.754 -13603903.090 5142644.811 10 0 60417 81000.00000 0 -21384179.783 -13750106.604 1968158.260 10 0 60417 81900.00000 0 -21500051.965 -13651369.579 -1244601.868 10 0 60417 82800.00000 0 -21263635.635 -13353421.328 -4433153.409 10 0 60417 83700.00000 0 -20655709.852 -12908325.542 -7535470.485 10 0 60417 84600.00000 0 -19669810.081 -12372077.990 -10491197.165 10 0 60417 85500.00000 0 -18312675.306 -11802050.111 -13242828.712 10 0 60418 0.00000 0 -16604153.831 -11254387.658 -15736836.379 10 0 60418 900.00000 0 -14576569.898 -10781475.109 -17924714.524 10 0 60418 1800.00000 0 -12273579.442 -10429574.580 -19763925.851 10 0 60418 2700.00000 0 -9748559.400 -10236738.695 -21218730.718 10 0 60418 3600.00000 0 -7062599.871 -10231086.763 -22260881.005 10 0 60418 4500.00000 0 -4282181.892 -10429516.959 -22870166.711 10 0 60418 5400.00000 0 -1476637.601 -10836908.939 -23034804.853 10 0 60418 6300.00000 0 1284501.756 -11445850.451 -22751663.615 10 0 60418 7200.00000 0 3934159.988 -12236899.348 -22026317.876 10 0 60418 8100.00000 0 6410262.493 -13179369.781 -20872935.501 10 0 60418 9000.00000 0 8658070.092 -14232609.411 -19313996.927 10 0 60418 9900.00000 0 10632203.985 -15347713.715 -17379853.751 10 0 60418 10800.00000 0 12298278.772 -16469605.237 -15108135.009 10 0 60418 11700.00000 0 13634076.853 -17539390.222 -12543012.749 10 0 60418 12600.00000 0 14630216.654 -18496893.397 -9734341.220 10 0 60418 13500.00000 0 15290288.418 -19283264.232 -6736686.433 10 0 60418 14400.00000 0 15630453.460 -19843544.866 -3608265.008 10 0 60418 15300.00000 0 15678525.279 -20129091.562 -409813.091 10 0 60418 16200.00000 0 15472572.561 -20099747.587 2796592.596 10 0 60418 17100.00000 0 15059104.111 -19725675.933 5948738.507 10 0 60418 18000.00000 0 14490913.217 -18988774.694 8985479.312 10 0 60418 18900.00000 0 13824672.951 -17883615.285 11847920.867 10 0 60418 19800.00000 0 13118384.266 -16417863.800 14480558.262 10 0 60418 20700.00000 0 12428784.564 -14612167.397 16832347.142 10 0 60418 21600.00000 0 11808825.890 -12499509.789 18857688.007 10 0 60418 22500.00000 0 11305328.709 -10124062.024 20517304.976 10 0 60418 23400.00000 0 10956909.690 -7539575.551 21779002.630 10 0 60418 24300.00000 0 10792270.341 -4807383.386 22618286.935 10 0 60418 25200.00000 0 10828918.231 -1994091.257 23018838.780 10 0 60418 26100.00000 0 11072374.484 830946.638 22972831.312 10 0 60418 27000.00000 0 11515901.062 3598263.818 22481085.081 10 0 60418 27900.00000 0 12140759.757 6240921.568 21553057.813 10 0 60418 28800.00000 0 12916992.737 8697044.396 20206668.561 10 0 60418 29700.00000 0 13804692.709 10912146.644 18467958.943 10 0 60418 30600.00000 0 14755710.303 12841154.367 16370597.110 10 0 60418 31500.00000 0 15715727.747 14450038.864 13955233.111 10 0 60418 32400.00000 0 16626612.265 15716994.253 11268717.193 10 0 60418 33300.00000 0 17428950.561 16633110.145 8363195.378 10 0 60418 34200.00000 0 18064657.591 17202511.546 5295099.354 10 0 60418 35100.00000 0 18479549.291 17441960.363 2124050.029 10 0 60418 36000.00000 0 18625770.022 17379935.617 -1088303.883 10 0 60418 36900.00000 0 18463971.234 17055231.551 -4279489.221 10 0 60418 37800.00000 0 17965148.159 16515133.378 -7387429.631 10 0 60418 38700.00000 0 17112055.681 15813248.405 -10351660.152 10 0 60418 39600.00000 0 15900142.279 15007085.020 -13114510.567 10 0 60418 40500.00000 0 14337961.431 14155482.748 -15622233.681 10 0 60418 41400.00000 0 12447042.002 13316002.823 -17826055.886 10 0 60418 42300.00000 0 10261222.133 12542390.288 -19683129.075 10 0 60418 43200.00000 0 7825473.779 11882215.352 -21157365.193 10 0 60418 44100.00000 0 5194266.553 11374793.908 -22220137.240 10 0 60418 45000.00000 0 2429538.769 11049475.027 -22850833.328 10 0 60418 45900.00000 0 -401640.012 10924367.494 -23037253.474 10 0 60418 46800.00000 0 -3229617.958 11005558.744 -22775841.888 10 0 60418 47700.00000 0 -5984815.743 11286858.634 -22071750.764 10 0 60418 48600.00000 0 -8600377.251 11750078.371 -20938734.780 10 0 60418 49500.00000 0 -11014706.654 12365832.322 -19398878.718 10 0 60418 50400.00000 0 -13173787.115 13094828.476 -17482163.725 10 0 60418 51300.00000 0 -15033185.658 13889592.820 -15225880.800 10 0 60418 52200.00000 0 -16559661.763 14696554.621 -12673902.929 10 0 60418 53100.00000 0 -17732313.961 15458404.505 -9875830.060 10 0 60418 54000.00000 0 -18543217.875 16116625.711 -6886023.594 10 0 60418 54900.00000 0 -18997530.474 16614091.591 -3762549.143 10 0 60418 55800.00000 0 -19113057.643 16897619.677 -566048.293 10 0 60418 56700.00000 0 -18919304.539 16920374.381 2641438.600 10 0 60418 57600.00000 0 -18456049.964 16644016.858 5797675.587 10 0 60418 58500.00000 0 -17771505.769 16040511.245 8841436.725 10 0 60418 59400.00000 0 -16920139.580 15093510.903 11713690.720 10 0 60418 60300.00000 0 -15960253.034 13799266.023 14358741.725 10 0 60418 61200.00000 0 -14951417.698 12167013.877 16725304.420 10 0 60418 62100.00000 0 -13951876.576 10218834.714 18767492.996 10 0 60418 63000.00000 0 -13016020.201 7988978.434 20445705.439 10 0 60418 63900.00000 0 -12192043.019 5522689.124 21727386.618 10 0 60418 64800.00000 0 -11519877.977 2874575.243 22587656.074 10 0 60418 65700.00000 0 -11029495.531 106591.906 23009788.914 10 0 60418 66600.00000 0 -10739638.093 -2714282.268 22985540.861 10 0 60418 67500.00000 0 -10657042.760 -5518578.740 22515311.353 10 0 60418 68400.00000 0 -10776184.973 -8236979.321 21608141.350 10 0 60418 69300.00000 0 -11079554.087 -10802954.785 20281545.472 10 0 60418 70200.00000 0 -11538449.717 -13155293.366 18561181.024 10 0 60418 71100.00000 0 -12114266.000 -15240414.918 16480359.422 10 0 60418 72000.00000 0 -12760210.343 -17014375.034 14079408.520 10 0 60418 72900.00000 0 -13423384.870 -18444476.013 11404897.267 10 0 60418 73800.00000 0 -14047143.216 -19510417.608 8508736.874 10 0 60418 74700.00000 0 -14573623.319 -20204939.524 5447175.425 10 0 60418 75600.00000 0 -14946349.075 -20533928.809 2279705.148 10 0 60418 76500.00000 0 -15112790.333 -20515987.750 -932096.349 10 0 60418 77400.00000 0 -15026772.132 -20181480.687 -4125767.955 10 0 60418 78300.00000 0 -14650630.180 -19571100.290 -7239185.986 10 0 60418 79200.00000 0 -13957020.131 -18734014.293 -10211779.667 10 0 60418 80100.00000 0 -12930302.844 -17725671.594 -12985716.534 10 0 60418 81000.00000 0 -11567445.751 -16605361.081 -15507033.884 10 0 60418 81900.00000 0 -9878401.045 -15433627.002 -17726693.585 10 0 60418 82800.00000 0 -7885943.609 -14269650.647 -19601539.181 10 0 60418 83700.00000 0 -5624974.489 -13168709.307 -21095136.507 10 0 60418 84600.00000 0 -3141318.271 -12179819.908 -22178481.484 10 0 60418 85500.00000 0 -490064.015 -11343666.662 -22830561.577 10 0 60419 0.00000 0 2266481.289 -10690899.769 -23038760.436 10 0 60419 900.00000 0 5061143.387 -10240875.989 -22799098.384 10 0 60419 1800.00000 0 7824434.414 -10000894.228 -22116304.382 10 0 60419 2700.00000 0 10487208.663 -9965956.318 -21003718.919 10 0 60419 3600.00000 0 12983306.927 -10119063.122 -19483029.666 10 0 60419 4500.00000 0 15252081.472 -10432032.262 -17583845.456 10 0 60419 5400.00000 0 17240697.112 -10866802.286 -15343116.995 10 0 60419 6300.00000 0 18906113.440 -11377167.642 -12804415.574 10 0 60419 7200.00000 0 20216666.583 -11910870.723 -10017083.877 10 0 60419 8100.00000 0 21153185.506 -12411962.196 -7035275.406 10 0 60419 9000.00000 0 21709597.566 -12823329.686 -3916901.234 10 0 60419 9900.00000 0 21892999.038 -13089287.685 -722504.723 10 0 60419 10800.00000 0 21723188.929 -13158119.013 2485913.845 10 0 60419 11700.00000 0 21231686.914 -12984460.375 5646099.713 10 0 60419 12600.00000 0 20460277.595 -12531431.019 8696749.691 10 0 60419 13500.00000 0 19459143.165 -11772414.495 11578698.355 10 0 60419 14400.00000 0 18284663.531 -10692418.051 14236061.516 10 0 60419 15300.00000 0 16996976.690 -9288951.962 16617315.009 10 0 60419 16200.00000 0 15657401.880 -7572391.187 18676288.333 10 0 60419 17100.00000 0 14325833.499 -5565803.319 20373054.451 10 0 60419 18000.00000 0 13058214.706 -3304248.932 21674699.143 10 0 60419 18900.00000 0 11904196.043 -833582.275 22555955.676 10 0 60419 19800.00000 0 10905076.530 1791199.154 22999693.076 10 0 60419 20700.00000 0 10092112.870 4507989.004 22997248.927 10 0 60419 21600.00000 0 9485266.985 7249907.416 22548600.449 10 0 60419 22500.00000 0 9092443.987 9947841.890 21662370.377 10 0 60419 23400.00000 0 8909252.326 12533089.464 20355667.128 10 0 60419 24300.00000 0 8919296.177 14939991.683 18653761.667 10 0 60419 25200.00000 0 9094987.955 17108453.760 16589606.422 10 0 60419 26100.00000 0 9398847.119 18986243.682 14203204.635 10 0 60419 27000.00000 0 9785230.860 20530975.847 11540841.394 10 0 60419 27900.00000 0 10202423.993 21711696.567 8654190.441 10 0 60419 28800.00000 0 10594999.873 22510005.033 5599313.515 10 0 60419 29700.00000 0 10906352.411 22920662.697 2435571.401 10 0 60419 30600.00000 0 11081291.636 22951665.367 -775532.153 10 0 60419 31500.00000 0 11068592.195 22623774.936 -3971550.736 10 0 60419 32400.00000 0 10823385.889 21969530.597 -7090315.842 10 0 60419 33300.00000 0 10309295.748 21031781.465 -10071153.150 10 0 60419 34200.00000 0 9500220.028 19861802.942 -12856069.943 10 0 60419 35100.00000 0 8381689.281 18517076.810 -15390889.705 10 0 60419 36000.00000 0 6951737.886 17058829.285 -17626311.155 10 0 60419 36900.00000 0 5221251.976 15549431.417 -19518870.585 10 0 60419 37800.00000 0 3213778.014 14049771.799 -21031788.542 10 0 60419 38700.00000 0 964799.005 12616712.481 -22135684.450 10 0 60419 39600.00000 0 -1479492.134 11300735.122 -22809145.470 10 0 60419 40500.00000 0 -4063871.483 10143876.075 -23039138.982 10 0 60419 41400.00000 0 -6726145.817 9178036.601 -22821261.158 10 0 60419 42300.00000 0 -9399511.634 8423738.391 -22159817.294 10 0 60419 43200.00000 0 -12015113.768 7889375.658 -21067732.822 10 0 60419 44100.00000 0 -14504697.585 7570994.089 -19566297.058 10 0 60419 45000.00000 0 -16803244.851 7452604.749 -17684744.935 10 0 60419 45900.00000 0 -18851484.154 7507018.588 -15459684.979 10 0 60419 46800.00000 0 -20598171.951 7697165.295 -12934384.689 10 0 60419 47700.00000 0 -22002049.829 7977839.987 -10157927.237 10 0 60419 48600.00000 0 -23033397.177 8297803.220 -7184255.923 10 0 60419 49500.00000 0 -23675115.269 8602145.010 -4071124.980 10 0 60419 50400.00000 0 -23923298.329 8834812.451 -878977.241 10 0 60419 51300.00000 0 -23787268.736 8941193.736 2330229.338 10 0 60419 52200.00000 0 -23289075.762 8870648.990 5494223.429 10 0 60419 53100.00000 0 -22462479.863 8578880.680 8551626.816 10 0 60419 54000.00000 0 -21351466.018 8030043.352 11443142.142 10 0 60419 54900.00000 0 -20008349.000 7198503.248 14112699.037 10 0 60419 55800.00000 0 -18491550.479 6070173.286 16508536.562 10 0 60419 56700.00000 0 -16863141.317 4643366.655 18584201.455 10 0 60419 57600.00000 0 -15186251.844 2929132.371 20299443.385 10 0 60419 58500.00000 0 -13522458.226 951057.760 21620990.504 10 0 60419 59400.00000 0 -11929253.647 -1255455.130 22523190.957 10 0 60419 60300.00000 0 -10457709.337 -3644410.406 22988508.496 10 0 60419 61200.00000 0 -9150422.412 -6160887.184 23007863.024 10 0 60419 62100.00000 0 -8039835.556 -8743088.553 22580809.628 10 0 60419 63000.00000 0 -7146998.051 -11324687.113 21715552.562 10 0 60419 63900.00000 0 -6480819.511 -13837371.001 20428793.440 10 0 60419 64800.00000 0 -6037847.149 -16213485.874 18745415.948 10 0 60419 65700.00000 0 -5802575.760 -18388663.958 16698012.286 10 0 60419 66600.00000 0 -5748277.331 -20304331.399 14326259.541 10 0 60419 67500.00000 0 -5838315.424 -21909989.723 11676157.145 10 0 60419 68400.00000 0 -6027888.989 -23165176.291 8799139.346 10 0 60419 69300.00000 0 -6266131.971 -24041021.525 5751079.341 10 0 60419 70200.00000 0 -6498479.789 -24521337.405 2591204.123 10 0 60419 71100.00000 0 -6669202.127 -24603191.187 -619058.875 10 0 60419 72000.00000 0 -6723994.134 -24296939.913 -3817280.516 10 0 60419 72900.00000 0 -6612515.334 -23625724.057 -6941250.129 10 0 60419 73800.00000 0 -6290767.577 -22624441.617 -9930192.598 10 0 60419 74700.00000 0 -5723210.055 -21338246.034 -12725957.743 10 0 60419 75600.00000 0 -4884520.523 -19820631.538 -15274158.022 10 0 60419 76500.00000 0 -3760926.950 -18131187.023 -17525231.715 10 0 60419 77400.00000 0 -2351052.071 -16333113.485 -19435410.380 10 0 60419 78300.00000 0 -666234.086 -14490609.875 -20967571.516 10 0 60419 79200.00000 0 1269691.095 -12666237.499 -22091959.917 10 0 60419 80100.00000 0 3421137.819 -10918373.708 -22786763.867 10 0 60419 81000.00000 0 5742018.361 -9298861.477 -23038535.420 10 0 60419 81900.00000 0 8177438.818 -7850952.909 -22842447.099 10 0 60419 82800.00000 0 10665772.966 -6607632.040 -22202380.491 10 0 60419 83700.00000 0 13141028.095 -5590386.188 -21130845.521 10 0 60419 84600.00000 0 15535404.683 -4808476.046 -19648732.283 10 0 60419 85500.00000 0 17781943.666 -4258733.785 -17784900.521 10 0 60420 0.00000 0 19817151.234 -3925896.183 -15575615.084 10 0 60420 900.00000 0 21583493.273 -3783457.238 -13063837.134 10 0 60420 1800.00000 0 23031653.140 -3795003.442 -10298387.935 10 0 60420 2700.00000 0 24122462.768 -3915973.692 -7332997.601 10 0 60420 3600.00000 0 24828424.200 -4095769.069 -4225260.173 10 0 60420 4500.00000 0 25134759.699 -4280122.370 -1035514.371 10 0 60420 5400.00000 0 25039946.990 -4413626.668 2174327.913 10 0 60420 6300.00000 0 24555717.920 -4442315.470 5341982.514 10 0 60420 7200.00000 0 23706521.377 -4316185.092 8405999.762 10 0 60420 8100.00000 0 22528473.586 -3991552.338 11306953.692 10 0 60420 9000.00000 0 21067840.315 -3433147.644 13988590.714 10 0 60420 9900.00000 0 19379114.903 -2615855.089 16398915.646 10 0 60420 10800.00000 0 17522772.676 -1526025.514 18491194.538 10 0 60420 11700.00000 0 15562795.571 -162306.887 20224855.361 10 0 60420 12600.00000 0 13564070.076 1464043.749 21566269.769 10 0 60420 13500.00000 0 11589766.569 3329380.912 22489401.432 10 0 60420 14400.00000 0 9698808.652 5398415.981 22976309.020 10 0 60420 15300.00000 0 7943537.172 7625457.541 23017494.459 10 0 60420 16200.00000 0 6367665.485 9956096.642 22612089.967 10 0 60420 17100.00000 0 5004610.329 12329268.445 21767880.109 10 0 60420 18000.00000 0 3876267.262 14679605.954 20501158.063 10 0 60420 18900.00000 0 2992281.151 16939989.235 18836418.228 10 0 60420 19800.00000 0 2349841.771 19044185.093 16805890.223 10 0 60420 20700.00000 0 1934012.734 20929467.957 14448922.366 10 0 60420 21600.00000 0 1718579.697 22539113.047 11811225.607 10 0 60420 22500.00000 0 1667381.983 23824657.761 8943991.720 10 0 60420 23400.00000 0 1736071.278 24747836.391 5902902.291 10 0 60420 24300.00000 0 1874222.839 25282106.684 2747047.409 10 0 60420 25200.00000 0 2027709.490 25413703.590 -462224.899 10 0 60420 26100.00000 0 2141237.255 25142175.342 -3662505.757 10 0 60420 27000.00000 0 2160934.359 24480378.804 -6791545.140 10 0 60420 27900.00000 0 2036882.863 23453933.954 -9788469.692 10 0 60420 28800.00000 0 1725484.463 22100160.272 -12594974.023 10 0 60420 29700.00000 0 1191559.038 20466539.884 -15156461.468 10 0 60420 30600.00000 0 410085.849 18608772.280 -17423111.416 10 0 60420 31500.00000 0 -632487.402 16588502.747 -19350851.893 10 0 60420 32400.00000 0 -1937424.062 14470820.233 -20902218.237 10 0 60420 33300.00000 0 -3493402.174 12321629.887 -22047081.198 10 0 60420 34200.00000 0 -5276755.665 10205010.517 -22763230.474 10 0 60420 35100.00000 0 -7252243.749 8180667.464 -23036802.794 10 0 60420 36000.00000 0 -9374317.020 6301587.053 -22862546.701 10 0 60420 36900.00000 0 -11588827.812 4611989.996 -22243919.390 10 0 60420 37800.00000 0 -13835113.887 3145668.316 -21193014.209 10 0 60420 38700.00000 0 -16048368.849 1924774.043 -19730320.569 10 0 60420 39600.00000 0 -18162200.740 959108.962 -17884321.198 10 0 60420 40500.00000 0 -20111272.364 245943.543 -15690934.709 10 0 60420 41400.00000 0 -21833913.435 -229628.980 -13192814.342 10 0 60420 42300.00000 0 -23274595.777 -493819.831 -10438516.560 10 0 60420 43200.00000 0 -24386168.479 -582791.429 -7481555.686 10 0 60420 44100.00000 0 -25131759.848 -540881.976 -4379362.950 10 0 60420 45000.00000 0 -25486266.986 -418483.873 -1192170.362 10 0 60420 45900.00000 0 -25437370.969 -269666.512 2018158.810 10 0 60420 46800.00000 0 -24986035.577 -149644.565 5189330.071 10 0 60420 47700.00000 0 -24146469.183 -112199.324 8259824.766 10 0 60420 48600.00000 0 -22945551.802 -207162.423 11170090.705 10 0 60420 49500.00000 0 -21421751.650 -478068.519 13863693.329 10 0 60420 50400.00000 0 -19623576.762 -960076.251 16288405.311 10 0 60420 51300.00000 0 -17607626.466 -1678245.436 18397213.860 10 0 60420 52200.00000 0 -15436323.952 -2646243.435 20149226.800 10 0 60420 53100.00000 0 -13175424.190 -3865535.662 21510460.461 10 0 60420 54000.00000 0 -10891400.505 -5325095.037 22454494.826 10 0 60420 54900.00000 0 -8648817.869 -7001643.618 22962983.839 10 0 60420 55800.00000 0 -6507801.398 -8860417.631 23026011.418 10 0 60420 56700.00000 0 -4521704.424 -10856425.385 22642286.487 10 0 60420 57600.00000 0 -2735072.220 -12936147.187 21819173.172 10 0 60420 58500.00000 0 -1181985.309 -15039607.876 20572555.164 10 0 60420 59400.00000 0 115149.393 -17102737.010 18926536.250 10 0 60420 60300.00000 0 1146309.817 -19059919.459 16912981.908 10 0 60420 61200.00000 0 1914043.124 -20846630.835 14570909.907 10 0 60420 62100.00000 0 2433115.960 -22402048.178 11945740.741 10 0 60420 63000.00000 0 2729645.607 -23671526.862 9088421.579 10 0 60420 63900.00000 0 2839748.955 -24608839.745 6054440.126 10 0 60420 64800.00000 0 2807766.645 -25178084.148 2902747.224 10 0 60420 65700.00000 0 2684137.911 -25355175.898 -305390.902 10 0 60420 66600.00000 0 2523016.648 -25128866.792 -3507588.058 10 0 60420 67500.00000 0 2379730.483 -24501241.911 -6641557.302 10 0 60420 68400.00000 0 2308191.441 -23487675.150 -9646329.472 10 0 60420 69300.00000 0 2358369.054 -22116244.342 -12463446.384 10 0 60420 70200.00000 0 2573934.082 -20426630.276 -15038104.622 10 0 60420 71100.00000 0 2990173.816 -18468545.804 -17320226.953 10 0 60420 72000.00000 0 3632268.215 -16299761.115 -19265439.980 10 0 60420 72900.00000 0 4514000.788 -13983808.183 -20835938.748 10 0 60420 73800.00000 0 5636959.491 -11587460.740 -22001221.517 10 0 60420 74700.00000 0 6990262.148 -9178095.364 -22738680.597 10 0 60420 75600.00000 0 8550818.602 -6821043.888 -23034038.196 10 0 60420 76500.00000 0 10284119.232 -4577047.388 -22881619.283 10 0 60420 77400.00000 0 12145517.262 -2499917.443 -22284456.684 10 0 60420 78300.00000 0 14081951.599 -634501.360 -21254226.823 10 0 60420 79200.00000 0 16034038.480 984964.885 -19811017.727 10 0 60420 80100.00000 0 17938444.762 2336048.596 -17982934.055 10 0 60420 81000.00000 0 19730443.825 3408808.953 -15805546.964 10 0 60420 81900.00000 0 21346547.485 4205955.150 -13321199.561 10 0 60420 82800.00000 0 22727103.935 4742469.155 -10578181.485 10 0 60420 83700.00000 0 23818753.133 5044710.603 -7629788.656 10 0 60420 84600.00000 0 24576637.113 5149043.080 -4533286.540 10 0 60420 85500.00000 0 24966272.653 5100040.978 -1348797.204 99